Геок-Тепе

Turkmenistan     38˚09′00″N   57˚58′01″E
temp.,
°C
wind,
m/s
gust,
m/s
humid.,
%
clouds,
%
prec.,
mm/h
press.,
hPa
HPBL,
m
1 december, tue
tue123:00+4˚e335799 0.0 1027317
02:00+2˚ese126663 0.0 102622
05:00+1˚e227633 0.0 102622
08:00+1˚ese22820 0.0 102622
11:00+5˚ese23580 0.0 1026375
14:00+9˚e33480 0.0 1024649
17:00+10˚ene44480 0.0 1023529
20:00+6˚ene23550 0.0 102531
2 december, wed
wed223:00+4˚ese23566 0.0 102525
02:00+3˚ese23630 0.0 102522
05:00+2˚ese11680 0.0 102522
08:00+2˚ese12690 0.0 102622
11:00+7˚e22480 0.0 1027328
14:00+11˚ene22380 0.0 1025717
17:00+11˚nne333733 0.0 1024349
20:00+6˚ene125162 0.0 102622
3 december, thu
thu323:00+6˚se235149 0.0 102623
02:00+4˚ese225667 0.0 102622
05:00+3˚e125983 0.0 102622
08:00+3˚ene1161100 0.0 102822
11:00+7˚ene1146100 0.0 1028317
14:00+9˚nne1139100 0.0 1027647
17:00+9˚n3340100 0.0 1027450
20:00+5˚ne124964 0.0 102922
4 december, fri
fri423:00+4˚ese224982 0.0 102922
02:00+3˚e125386 0.0 102922
05:00+2˚ese235351 0.0 102922
08:00+1˚ese22515 0.0 103022
11:00+5˚ese343728 0.0 1031372
14:00+9˚e44330 0.0 1029756
17:00+9˚e45330 0.0 1028754
20:00+5˚e44404 0.0 102974
5 december, sat
sat523:00+3˚ese46411 0.0 1028109
02:00+1˚ese34410 0.0 102754
05:00+1˚ese34430 0.0 102744
08:00ese334521 0.0 102736
11:00+4˚ese463432 0.0 1027477
14:00+9˚ese56291 0.0 1025901
17:00+9˚e55281 0.0 1024822
20:00+4˚ese343621 0.0 102565